{"data":{"norad_id":64664,"intl_designator":"2025-139A","name":"STARLINK-34464","alt_names":[],"object_type":"PAYLOAD","status":"ACTIVE","operator":null,"country":"US","launch_date":"2025-06-28","launch_site_code":"AFETR","launch_vehicle":null,"mission":null,"orbit_class":"UNKNOWN","rcs_meters":null,"size_class":null,"mass_kg":null,"dimensions":null,"purposes":["comms"],"wikipedia_slug":null,"has_3d_model":false,"image_url":null,"decayed_at":null,"tle_current":{"epoch":"2026-09-20T06:14:12.737760Z","epoch_age_seconds":152107,"freshness":"FRESH","line1":"1 64664U 25139A   26263.25986965  .00009446  00000+0  29035-3 0  9999","line2":"2 64664  53.1579 299.0323 0001154  81.8090 278.3043 15.34399137 70136","mean_motion":15.34399137,"eccentricity":0.0001154,"inclination_deg":53.1579,"raan_deg":299.0323,"arg_perigee_deg":81.809,"mean_anomaly_deg":278.3043,"bstar":0.00029035,"rev_number":7013,"period_min":93.847810864612,"perigee_km":461.91637196645,"apogee_km":463.4952384859,"semimajor_km":6840.8428052262,"source":"CELESTRAK","updated_at":"2026-09-21T09:00:35.396757Z"}}}